[[{"header":{"parameterUnit":"m.s-1","parameterCategory":1,"la1":30.2991,"la2":30.254,"lo1":-89.0895,"lo2":-89.0444,"dy":0.0017,"dx":0.0017,"nx":28,"ny":28,"refTime":"2025-08-16T03:00:00:Z","depth":0,"parameterNumber":2,"parameterNumberName":"U-component_of_WINDS"},"data":[0,0,0,0,0,0,0,0,0,0,0,0,0,0,0,0,0,0,0,0,0,0,0,0,0,0,0,0,0,0,0,0,0,0,0,0,0,0,0,0,0,0,0,0,0,0,0,0,0,0,0,0,0,0,0,0,0,0,1.4029,1.403,0,1.4096,1.4097,1.4097,1.4088,1.4087,1.4085,1.4084,1.4155,1.4157,1.416,0,0,0,0,0,0,0,0,0,0,0,0,0,1.3896,1.3898,1.4029,1.403,1.4031,1.4096,1.4097,1.4098,1.4088,1.4086,1.4085,1.4084,1.4154,1.4157,1.4161,0,0,0,0,0,0,0,0,0,0,0,0,0,1.3957,1.3899,1.4029,1.4034,1.4035,1.4096,1.4097,1.4098,1.4088,1.4086,1.4085,1.4083,1.4152,1.4157,1.4161,1.4222,0,0,1.4174,1.4176,0,0,0,0,0,0,0,0,1.3954,1.3962,1.4032,1.4034,1.4035,1.4082,1.4075,1.4139,1.4089,1.4068,1.4084,1.4082,1.4132,1.4138,1.4154,1.4225,1.4228,1.4175,1.4177,1.4179,1.4181,0,0,0,0,0,0,0,1.395,1.3959,1.4056,1.4033,1.4035,1.4033,1.404,1.4087,1.4109,1.407,1.4069,1.4077,1.4132,1.415,1.4156,1.4229,1.4175,1.4179,1.4181,1.4183,1.4354,1.4356,0,0,0,0,0,0,1.3944,1.3956,1.4054,1.4058,1.3989,1.4037,1.4045,1.4068,1.4108,1.4112,1.4078,1.4076,1.4143,1.4151,1.4158,1.4232,1.4179,1.4183,1.4186,1.4352,1.4355,1.4357,0,0,0,0,0,0,1.3941,1.3953,1.4051,1.4007,1.4019,1.4041,1.4068,1.4071,1.4088,1.4115,1.4119,1.4092,1.4142,1.4152,1.4206,1.4234,1.4185,1.4189,1.435,1.4353,1.4356,1.4381,0,0,0,0,0,0,1.3937,1.3952,1.3974,1.4007,1.4021,1.4097,1.407,1.4073,1.4095,1.4093,1.4129,1.4133,1.4142,1.42,1.421,1.424,1.4193,1.4348,1.4351,1.4355,1.4378,1.4384,1.439,0,0,0,0,0,1.3932,1.3979,1.3976,1.3987,1.405,1.4099,1.4107,1.4115,1.4098,1.4121,1.4138,1.4132,1.423,1.4205,1.4217,1.4248,1.4346,1.435,1.4355,1.4375,1.4383,1.439,0,0,0,0,0,0,1.3949,1.3983,1.398,1.4038,1.4066,1.4097,1.4127,1.4123,1.4157,1.4153,1.4163,1.4171,1.4226,1.4243,1.4215,1.431,1.4286,1.4292,1.4297,1.4305,1.4311,1.4306,1.4196,0,0,0,0,0,1.396,1.3996,1.4024,1.4073,1.4087,1.4104,1.4126,1.413,1.4159,1.417,1.4191,1.422,1.4258,1.4282,1.4318,1.438,1.4388,1.4407,1.4413,1.4418,1.4424,1.4459,1.4468,1.4371,1.4371,1.4371,0,0,1.3982,1.4005,1.4027,1.4077,1.4098,1.4136,1.4114,1.4155,1.4183,1.4177,1.4229,1.4246,1.4279,1.4337,1.4364,1.4353,1.4453,1.4424,1.4428,1.4431,1.4464,1.4474,1.4482,1.4374,1.4373,1.4373,0,0,1.4041,1.4062,1.4105,1.4128,1.4161,1.4172,1.4183,1.4215,1.4225,1.4278,1.4274,1.4308,1.4372,1.4396,1.4417,1.4486,1.4481,1.4497,1.453,1.4563,1.4571,1.4578,1.4603,1.4612,1.4503,1.4503,1.4503,0,1.4065,1.4121,1.4128,1.417,1.4192,1.4187,1.4232,1.4253,1.4296,1.4312,1.4299,1.4379,1.4401,1.4465,1.4482,1.4499,1.4512,1.4493,1.4569,1.4576,1.4583,1.4607,1.4616,1.4505,1.4505,1.4505,1.4505,0,1.4148,1.4187,1.4218,1.426,1.4286,1.4328,1.4343,1.4368,1.437,1.4384,1.4438,1.4464,1.4505,1.4521,1.4523,1.4586,1.4578,1.4567,1.4543,1.4594,1.4616,1.4626,1.4508,1.4507,1.4506,1.4506,0,0,1.422,1.4265,1.4276,1.4295,1.4332,1.4362,1.4405,1.4445,1.4467,1.4497,1.4534,1.4588,1.4578,1.4602,1.4607,1.4637,1.4691,1.4622,1.4623,1.4634,1.4762,1.477,1.478,1.4688,1.469,1.4691,1.4759,0,1.4283,1.4358,1.4366,1.4433,1.447,1.4467,1.4504,1.4531,1.4545,1.4579,1.4594,1.4633,1.4617,1.4631,1.466,1.4678,1.4716,1.4673,1.4723,1.4724,1.4714,1.4792,1.4801,1.4863,1.4768,1.4769,1.477,0,1.4366,1.4399,1.4469,1.4501,1.4517,1.455,1.4588,1.462,1.4651,1.4659,1.4685,1.4687,1.4732,1.4706,1.4769,1.4739,1.476,1.4772,1.4775,1.478,1.475,1.4799,1.4883,1.4893,1.4785,1.4783,1.4782,0,1.4412,1.4473,1.4523,1.454,1.4578,1.4602,1.4619,1.4648,1.4671,1.4705,1.472,1.4758,1.4779,1.4809,1.4822,1.4802,1.4884,1.4859,1.4892,1.4892,1.491,1.4908,1.4999,1.4923,1.4923,1.4923,1.4923,0,1.4481,1.4525,1.4544,1.4575,1.4624,1.4634,1.4682,1.4698,1.4725,1.4759,1.4759,1.4792,1.4806,1.4841,1.4851,1.4902,1.4912,1.492,1.4922,1.492,1.4919,1.4934,1.493,1.4926,1.4925,1.4925,1.4924,0,1.454,1.4555,1.4609,1.4641,1.465,1.4685,1.4713,1.4743,1.4757,1.4801,1.4812,1.4833,1.4875,1.489,1.4941,1.4948,1.5007,1.5005,1.4996,1.4997,1.5029,1.5026,1.5132,1.5146,1.5062,1.5062,1.5063,0,1.4583,1.4617,1.4652,1.4675,1.4693,1.473,1.4754,1.4765,1.4791,1.4829,1.4855,1.4896,1.4929,1.4996,1.5017,1.5056,1.5056,1.509,1.5061,1.5058,1.5056,1.5054,1.5058,1.5095,1.5096,1.5097,1.5097,0,1.4659,1.4664,1.4699,1.4736,1.4765,1.4795,1.4824,1.4843,1.4859,1.4887,1.4929,1.4955,1.5007,1.5048,1.5088,1.5107,1.5105,1.5106,1.5116,1.5114,1.5107,1.5112,1.5011,1.5104,1.5103,1.5103,1.5102,1.5102,1.4711,1.4741,1.477,1.4809,1.4832,1.4859,1.489,1.4907,1.4942,1.4985,1.499,1.5035,1.5066,1.512,1.514,1.5177,1.5167,1.5181,1.5185,1.5188,1.5191,1.5102,1.5184,1.5184,1.5184,1.5184,1.5183,0,1.4786,1.4805,1.4841,1.4881,1.4912,1.4907,1.4939,1.4966,1.5005,1.5034,1.5067,1.5116,1.5156,1.518,1.5221,1.5245,1.5246,1.5256,1.5254,1.5258,1.5197,1.5184,1.5255,1.5255,1.5255,1.5255,1.5255,1.5255,1.4829,1.4879,1.4888,1.495,1.4969,1.5013,1.5032,1.5058,1.5081,1.5135,1.5169,1.5184,1.5211,1.5254,1.5291,1.5297,1.5312,1.5323,1.5328,1.527,1.5263,1.5256,1.5244,1.5326,1.5326,1.5387,1.5387,1.5388]},{"header":{"parameterUnit":"m.s-1","parameterCategory":1,"la1":30.2991,"la2":30.254,"lo1":-89.0895,"lo2":-89.0444,"dy":0.0017,"dx":0.0017,"nx":28,"ny":28,"refTime":"2025-08-16T03:00:00:Z","depth":0,"parameterNumber":3,"parameterNumberName":"V-component_of_WINDS"},"data":[0,0,0,0,0,0,0,0,0,0,0,0,0,0,0,0,0,0,0,0,0,0,0,0,0,0,0,0,0,0,0,0,0,0,0,0,0,0,0,0,0,0,0,0,0,0,0,0,0,0,0,0,0,0,0,0,0,0,0.4442,0.4442,0,0.445,0.445,0.445,0.441,0.4409,0.4408,0.4407,0.4419,0.442,0.4421,0,0,0,0,0,0,0,0,0,0,0,0,0,0.4394,0.4395,0.4442,0.4442,0.4442,0.445,0.445,0.445,0.441,0.4409,0.4407,0.4406,0.4418,0.442,0.4422,0,0,0,0,0,0,0,0,0,0,0,0,0,0.441,0.4396,0.4442,0.4423,0.4421,0.445,0.445,0.445,0.4411,0.4409,0.4407,0.4405,0.4418,0.442,0.4422,0.447,0,0,0.4428,0.4429,0,0,0,0,0,0,0,0,0.4409,0.4412,0.4426,0.4424,0.4423,0.4427,0.4438,0.4457,0.4411,0.4415,0.4407,0.4405,0.4423,0.4425,0.443,0.4471,0.4471,0.4428,0.443,0.4431,0.4431,0,0,0,0,0,0,0,0.4408,0.4411,0.4445,0.4426,0.4424,0.4415,0.4415,0.4441,0.4429,0.4414,0.4411,0.4413,0.4422,0.4428,0.443,0.4472,0.4428,0.443,0.4432,0.4432,0.4552,0.4554,0,0,0,0,0,0,0.4409,0.4411,0.4445,0.4446,0.4411,0.4417,0.4418,0.4428,0.4428,0.4427,0.4414,0.4411,0.4426,0.4428,0.4431,0.4487,0.4431,0.4433,0.4434,0.455,0.4552,0.4554,0,0,0,0,0,0,0.4408,0.4413,0.4445,0.4427,0.4431,0.442,0.4432,0.4429,0.4435,0.4428,0.4426,0.4423,0.4424,0.4428,0.446,0.4487,0.4434,0.4436,0.4548,0.4551,0.4553,0.4601,0,0,0,0,0,0,0.4407,0.4413,0.443,0.4428,0.4432,0.4474,0.4433,0.443,0.4438,0.4434,0.4436,0.4435,0.4423,0.4457,0.4462,0.4489,0.4437,0.4545,0.4549,0.4552,0.4597,0.4605,0.4612,0,0,0,0,0,0.4406,0.4444,0.4431,0.4436,0.4454,0.4475,0.4478,0.4463,0.4441,0.4459,0.4454,0.4434,0.4483,0.4461,0.4466,0.4494,0.4544,0.4548,0.4552,0.4594,0.4604,0.4612,0,0,0,0,0,0,0.4452,0.4444,0.4429,0.4468,0.4473,0.4469,0.4491,0.4474,0.4486,0.4481,0.4463,0.4464,0.45,0.45,0.4476,0.4541,0.451,0.4515,0.454,0.4549,0.4556,0.4556,0.4439,0,0,0,0,0,0.4466,0.4484,0.4476,0.4511,0.4514,0.4502,0.4511,0.4499,0.4503,0.4505,0.4503,0.4509,0.4526,0.4537,0.4552,0.4597,0.4597,0.4618,0.4626,0.4632,0.4637,0.4661,0.467,0.4568,0.4568,0.4568,0,0,0.4497,0.4495,0.4507,0.4521,0.4523,0.4542,0.4504,0.4526,0.4541,0.4509,0.454,0.4538,0.4544,0.4583,0.46,0.4584,0.4665,0.4637,0.4642,0.4644,0.4666,0.4676,0.4685,0.4571,0.4571,0.457,0,0,0.4563,0.4563,0.4592,0.4594,0.4597,0.4588,0.4595,0.4594,0.4591,0.4621,0.4598,0.4615,0.4644,0.4648,0.4654,0.472,0.4703,0.4726,0.4766,0.4789,0.4797,0.4804,0.4828,0.4837,0.4731,0.4731,0.4731,0,0.4601,0.4628,0.4609,0.4633,0.464,0.461,0.464,0.4643,0.4651,0.4657,0.4639,0.4674,0.4675,0.4715,0.4731,0.4736,0.4744,0.4726,0.4797,0.4804,0.481,0.4833,0.4842,0.4734,0.4733,0.4733,0.4733,0,0.4675,0.4694,0.4718,0.4725,0.4734,0.4761,0.4746,0.4758,0.4745,0.4739,0.477,0.477,0.4784,0.4792,0.478,0.483,0.482,0.48,0.4768,0.4823,0.4844,0.4853,0.4738,0.4737,0.4736,0.4735,0,0,0.4772,0.4767,0.4776,0.4779,0.4779,0.4794,0.4819,0.4831,0.4842,0.4848,0.4869,0.4893,0.4874,0.4881,0.4869,0.4889,0.4942,0.4866,0.4866,0.4881,0.4997,0.5013,0.5023,0.4929,0.4931,0.4932,0.4997,0,0.4837,0.4879,0.4862,0.4906,0.4923,0.4895,0.4917,0.492,0.4914,0.4929,0.4923,0.4941,0.4914,0.4918,0.4936,0.4932,0.4965,0.4926,0.495,0.4951,0.495,0.5034,0.5051,0.5112,0.5005,0.5006,0.5007,0,0.4918,0.4926,0.4972,0.4968,0.4975,0.4995,0.5004,0.5018,0.5021,0.5016,0.5023,0.5006,0.5031,0.4998,0.5033,0.5007,0.5015,0.5014,0.5016,0.5019,0.4983,0.504,0.5131,0.5141,0.502,0.5019,0.5018,0,0.4985,0.5007,0.5037,0.504,0.5036,0.5051,0.505,0.5051,0.5059,0.5068,0.5073,0.5085,0.5092,0.5102,0.5089,0.5067,0.5126,0.5092,0.5123,0.5123,0.5138,0.5137,0.5233,0.5142,0.5142,0.5142,0.5141,0,0.506,0.5089,0.5067,0.5085,0.5117,0.5097,0.5129,0.5125,0.5126,0.5144,0.512,0.5137,0.5118,0.5134,0.5124,0.5155,0.5158,0.5155,0.5152,0.5157,0.5158,0.5164,0.5159,0.5144,0.5143,0.5143,0.5143,0,0.514,0.5127,0.5157,0.515,0.5149,0.5173,0.5168,0.5185,0.5177,0.52,0.5204,0.5192,0.5209,0.5197,0.5214,0.5207,0.5247,0.5238,0.5246,0.5244,0.5276,0.5273,0.5379,0.5392,0.5292,0.5293,0.5294,0,0.5189,0.5211,0.5206,0.5215,0.5216,0.5232,0.5239,0.5221,0.523,0.5234,0.5251,0.5265,0.5276,0.5305,0.5299,0.5312,0.5303,0.534,0.5306,0.531,0.5305,0.5304,0.5306,0.5347,0.5348,0.5349,0.535,0,0.5278,0.527,0.5282,0.5291,0.5301,0.5307,0.5312,0.5322,0.5302,0.5314,0.5331,0.5339,0.5356,0.5371,0.5381,0.5381,0.5363,0.536,0.5368,0.5375,0.5379,0.5378,0.5266,0.5358,0.5358,0.5357,0.5357,0.5356,0.5345,0.5362,0.5361,0.5375,0.5376,0.5381,0.5397,0.539,0.5403,0.5415,0.5403,0.5423,0.5424,0.5436,0.5438,0.5454,0.544,0.5451,0.5454,0.5457,0.5462,0.5375,0.5456,0.5456,0.5455,0.5455,0.5455,0,0.5433,0.543,0.5443,0.545,0.5461,0.544,0.5444,0.5455,0.5473,0.5475,0.5486,0.5505,0.5519,0.5513,0.5525,0.5539,0.5531,0.5543,0.5543,0.5543,0.5474,0.5466,0.555,0.555,0.555,0.555,0.555,0.555,0.548,0.5509,0.55,0.5529,0.5526,0.5545,0.5549,0.5553,0.5555,0.5577,0.5588,0.5583,0.5582,0.5594,0.5607,0.5604,0.5611,0.5626,0.5621,0.5557,0.5548,0.5539,0.5532,0.5627,0.5628,0.5689,0.5689,0.569]}]]